Location: Caltech
(34.1382°N, 118.1253°W)
Time: 23:51:16
(UTC-07:00)

CZ-4B DEB - Visible Passes

Search period start: 27 September 2016 00:00
Search period end: 07 October 2016 00:00
Orbit: 841 x 863 km, 98.9° (Epoch: 28 September)

Date Brightness Start Highest point End Pass type
(mag) Time Alt. Az. Time Alt. Az. Time Alt. Az.
27 Sep 6.8 03:17:02 10° ENE 03:19:25 13° E 03:20:39 12° ESE visible
27 Sep 4.1 04:55:03 10° N 05:00:29 66° WNW 05:02:41 36° SW visible
28 Sep 4.1 04:43:36 10° NNE 04:49:07 85° WNW 04:51:03 42° SSW visible
29 Sep 4.3 04:32:14 10° NNE 04:37:44 76° ESE 04:39:26 45° S visible
29 Sep 5.9 06:15:30 10° NW 06:17:43 13° WNW 06:19:57 10° W visible
30 Sep 4.6 04:20:53 10° NNE 04:26:18 58° E 04:27:47 44° SSE visible
30 Sep 5.7 06:03:13 10° NNW 06:06:28 16° WNW 06:09:45 10° W visible
01 Oct 5.1 04:09:37 10° NNE 04:14:53 45° E 04:16:09 38° SE visible
01 Oct 5.5 05:51:15 10° NNW 05:55:12 21° WNW 05:58:11 14° WSW visible
02 Oct 5.6 03:58:26 10° NNE 04:03:26 35° E 04:04:31 32° ESE visible
02 Oct 5.2 05:39:27 10° NNW 05:43:56 26° WNW 05:46:33 18° WSW visible
03 Oct 5.9 03:47:21 10° NE 03:51:59 27° E 03:52:53 26° ESE visible
03 Oct 4.9 05:27:45 10° N 05:32:37 33° WNW 05:34:55 24° WSW visible
04 Oct 6.3 03:36:24 10° NE 03:40:30 21° E 03:41:14 21° ESE visible
04 Oct 4.5 05:16:08 10° N 05:21:17 42° WNW 05:23:16 31° WSW visible
05 Oct 6.6 03:25:39 10° NE 03:28:59 16° E 03:29:36 16° ESE visible
05 Oct 4.3 05:04:35 10° N 05:09:57 54° WNW 05:11:37 39° SW visible
06 Oct 6.9 03:15:22 10° ENE 03:17:28 12° E 03:17:57 12° E visible
06 Oct 4.1 04:53:05 10° N 04:58:35 70° WNW 04:59:59 49° SW visible
